Tiruchchirapalli, India

5:07 PM IST on February 27, 2017 (GMT +0530)
Tiruchirappalli

Weather History for VOTR - October, 2012

Change the Weather History Date:

Wednesday, October 10, 2012

  Actual Average Record
Temperature  
Mean Temperature 84 °F -  
Max Temperature 94 °F 85 °F 100 °F (2007)
Min Temperature 73 °F 75 °F 73 °F (2012)
Cooling Degree Days 18    
Growing Degree Days 34 (Base 50)    
Moisture  
Dew Point 72 °F    
Average Humidity 67    
Maximum Humidity 94    
Minimum Humidity 37    
Precipitation  
Precipitation 0.02 in - - ()
Sea Level Pressure  
Sea Level Pressure 29.77 in    
Wind  
Wind Speed 7 mph ()    
Max Wind Speed 14 mph    
Max Gust Speed -    
Visibility 3.2 miles    
Events Rain , Thunderstorm    
Averages and records for this station are not official NWS values.
T = Trace of Precipitation, MM = Missing Value Source: Averaged Metar Reports

Daily Weather History Graph

Daily Weather History Graph

Search for Another Location

Airport or City:

Trip Planner

Search our weather history database for the weather conditions in past years. The results will help you decide how hot, cold, wet, or windy it might be!

Date:

Astronomy

Oct. 10, 2012 Rise Set
Actual Time 6:03 AM IST 6:00 PM IST
Civil Twilight 5:42 AM IST 6:21 PM IST
Nautical Twilight 5:18 AM IST 6:45 PM IST
Astronomical Twilight 4:53 AM IST 7:10 PM IST
Moon 1:09 AM IST (10/10) 1:54 PM IST (10/10)
Length of Visible Light 12h 38m
Length of Day
11h 56m
Waning Crescent, 31% of the Moon is Illuminated
Oct 10
Waning Crescent
Oct 15
New
Oct 22
First Quarter
Oct 30
Full
Nov 7
Last Quarter

Hourly Weather History & Observations

Time (IST) Temp. Heat Index Dew Point Humidity Pressure Visibility Wind Dir Wind Speed Gust Speed Precip Events Conditions
12:40 AM 77.0 °F - 73.4 °F 89% 29.80 in 2.5 mi West 9.2 mph - N/A   Haze
1:10 AM 77.0 °F - 73.4 °F 89% 29.77 in 2.5 mi WNW 10.4 mph - N/A   Haze
1:40 AM 78.8 °F - 73.4 °F 83% 29.80 in 2.5 mi West 6.9 mph - N/A   Haze
2:10 AM 77.0 °F - 73.4 °F 89% 29.77 in 2.5 mi West 6.9 mph - N/A Rain Rain
2:30 AM 75 °F - 73 °F 90% 29.79 in 1 mi West 11.5 mph - - Rain Rain
2:40 AM 75.2 °F - 73.4 °F 94% 29.77 in 2.5 mi West 10.4 mph - N/A Rain Rain
4:10 AM 75.2 °F - 73.4 °F 94% 29.77 in 1.9 mi West 3.5 mph - N/A Rain Rain
5:10 AM 75.2 °F - 73.4 °F 94% 29.77 in 1.9 mi West 6.9 mph - N/A   Mostly Cloudy
5:30 AM 74 °F - 72 °F 93% 29.77 in 2 mi WNW 9.2 mph - -   Haze
6:10 AM 75.2 °F - 73.4 °F 94% 29.77 in 2.5 mi WNW 8.1 mph - N/A   Haze
6:40 AM 75.2 °F - 73.4 °F 94% 29.77 in 2.5 mi WNW 9.2 mph - N/A   Haze
7:10 AM 77.0 °F - 73.4 °F 89% 29.77 in 2.5 mi NW 6.9 mph - N/A   Haze
8:10 AM 78.8 °F - 71.6 °F 78% 29.83 in 3.1 mi WNW 12.7 mph - N/A   Haze
8:30 AM 80 °F - 72 °F 70% 29.82 in 2 mi WNW 11.5 mph - -   Haze
8:40 AM 80.6 °F 84.6 °F 71.6 °F 74% 29.83 in 3.1 mi NW 11.5 mph - N/A   Haze
9:10 AM 82.4 °F 87.2 °F 71.6 °F 70% 29.83 in 3.1 mi WNW 11.5 mph - N/A   Haze
9:40 AM 84.2 °F 89.6 °F 71.6 °F 66% 29.83 in 3.1 mi NW 9.2 mph - N/A   Haze
10:10 AM 86.0 °F 91.8 °F 71.6 °F 62% 29.83 in 3.1 mi West 9.2 mph - N/A   Haze
10:40 AM 87.8 °F 93.8 °F 71.6 °F 58% 29.83 in 3.7 mi NW 9.2 mph - N/A   Scattered Clouds
11:10 AM 89.6 °F 98.2 °F 73.4 °F 59% 29.80 in 3.7 mi WNW 9.2 mph - N/A   Scattered Clouds
11:30 AM 88 °F - 73 °F 53% 29.78 in 2 mi NW 9.2 mph - -   Haze
11:40 AM 89.6 °F 98.2 °F 73.4 °F 59% 29.77 in 3.7 mi NW 9.2 mph - N/A   Scattered Clouds
12:10 PM 91.4 °F 98.4 °F 71.6 °F 52% 29.77 in 3.7 mi NW 6.9 mph - N/A   Partly Cloudy
12:40 PM 91.4 °F 98.4 °F 71.6 °F 52% 29.74 in 3.7 mi NW 5.8 mph - N/A   Partly Cloudy
1:10 PM 93.2 °F 100.5 °F 71.6 °F 49% 29.74 in 3.7 mi NNW 5.8 mph - N/A   Partly Cloudy
1:40 PM 93.2 °F 100.5 °F 71.6 °F 49% 29.71 in 3.7 mi WNW 6.9 mph - N/A   Partly Cloudy
2:10 PM 95.0 °F 103.2 °F 71.6 °F 47% 29.71 in 3.7 mi Variable 4.6 mph - N/A   Partly Cloudy
2:30 PM 94 °F - 70 °F 37% 29.70 in 2 mi West 4.6 mph - -   Haze
2:40 PM 95.0 °F 103.2 °F 71.6 °F 47% 29.71 in 3.7 mi WNW 5.8 mph - N/A   Partly Cloudy
3:10 PM 95.0 °F 103.2 °F 71.6 °F 47% 29.68 in 5.0 mi West 4.6 mph - N/A   Partly Cloudy
3:40 PM 95.0 °F 103.2 °F 71.6 °F 47% 29.68 in 5.0 mi WNW 4.6 mph - N/A   Partly Cloudy
4:10 PM 95.0 °F 103.2 °F 71.6 °F 47% 29.68 in 5.0 mi WNW 3.5 mph - N/A   Partly Cloudy
4:40 PM 93.2 °F 100.5 °F 71.6 °F 49% 29.68 in 5.0 mi WNW 3.5 mph - N/A   Partly Cloudy
5:10 PM 93.2 °F 100.5 °F 71.6 °F 49% 29.68 in 5.0 mi West 3.5 mph - N/A   Partly Cloudy
5:30 PM 92 °F - 71 °F 41% 29.69 in 2 mi West 2.3 mph - -   Haze
5:40 PM 91.4 °F 98.4 °F 71.6 °F 52% 29.71 in 5.0 mi Variable 2.3 mph - N/A   Partly Cloudy
6:10 PM 91.4 °F 98.4 °F 71.6 °F 52% 29.71 in 3.7 mi SSE 8.1 mph - N/A   Scattered Clouds
6:40 PM 89.6 °F 96.2 °F 71.6 °F 55% 29.74 in 3.7 mi SE 6.9 mph - N/A   Scattered Clouds
7:10 PM 86.0 °F 93.4 °F 73.4 °F 66% 29.74 in 3.7 mi SSE 5.8 mph - N/A   Scattered Clouds
8:10 PM 84.2 °F 89.6 °F 71.6 °F 66% 29.80 in 3.7 mi ESE 12.7 mph - N/A Thunderstorm Thunderstorm
8:30 PM 83 °F - 71 °F 60% 29.82 in 2 mi NE 13.8 mph - - Thunderstorm Thunderstorm
8:40 PM 82.4 °F 87.2 °F 71.6 °F 70% 29.83 in 3.7 mi ENE 13.8 mph - N/A Thunderstorm Thunderstorm
9:10 PM 80.6 °F 84.6 °F 71.6 °F 74% 29.83 in 3.7 mi East 10.4 mph - N/A Thunderstorm Thunderstorm
10:40 PM 78.8 °F - 71.6 °F 78% 29.83 in 3.1 mi South 4.6 mph - N/A   Haze
11:10 PM 78.8 °F - 71.6 °F 78% 29.83 in 3.1 mi SW 5.8 mph - N/A   Haze
11:30 PM 79 °F - 72 °F 75% 29.82 in 1 mi SW 5.8 mph - -   Haze
11:40 PM 78.8 °F - 71.6 °F 78% 29.83 in 3.1 mi SW 4.6 mph - N/A   Haze